Regional Weather Roundup
Issued by NWS Charleston, SC

Current Version | Previous Version | Text Only | Print | Product List | Glossary Off
Versions: 1 2 3 4 5 6 7 8 9 10 11 12 13 14 15 16 17 18 19 20 21 22 23 24 25 26 27 28 29 30 31 32 33 34 35 36 37 38 39 40 41 42 43 44 45 46 47 48 49 50

000
ASUS42 KCHS 061426
RWRCHS

REGIONAL WEATHER ROUNDUP
NATIONAL WEATHER SERVICE CHARLESTON SC
900 AM EST FRI MAR 06 2015

NOTE: "FAIR" INDICATES FEW OR NO CLOUDS BELOW 12,000 FEET WITH NO
SIGNIFICANT WEATHER AND/OR OBSTRUCTIONS TO VISIBILITY.

NOT ALL STATIONS ARE QUALITY CONTROLLED BY THE NATIONAL
WEATHER SERVICE. USE DATA WITH CAUTION...ESPECIALLY
DEWPOINT OBSERVATIONS.

SCZ027-030-031-034>040-042>050-061500-
...SOUTHEAST SOUTH CAROLINA...

CITY           SKY/WX    TMP DP  RH WIND       PRES   REMARKS
N CHARLESTON   CLOUDY    39  30  70 NE15      30.41R WCI  31
WATERFRONT PRK NOT AVBL
MOUNT PLEASANT LGT RAIN  39  30  70 N7        30.42R WCI  34
PINOPOLIS        N/A     39  32  75 NE15      30.34R WCI  31
MONCKS CORNER  CLOUDY    41  30  65 NE8G17    30.42R
SUMMERVILLE    CLOUDY    39  32  75 N13G18    30.43R WCI  32
BEAUFORT MCAS  CLOUDY    42  34  73 N14       30.39R
BEAUFORT ARPT  CLOUDY    43  36  75 NE15      30.40R
HILTON HEAD IS CLOUDY    43  36  75 N9G17     30.39R
WALTERBORO     CLOUDY    41  32  70 NE12      30.42R
ALLENDALE      CLOUDY    39  30  70 N8G14     30.42R WCI  34

...SOUTHERN MIDLANDS AND PEE DEE...

CITY           SKY/WX    TMP DP  RH WIND       PRES   REMARKS
GEORGETOWN     NOT AVBL
KINGSTREE      NOT AVBL
ORANGEBURG     CLOUDY    39  28  64 NE16G22   30.43R WCI  30
BARNWELL       CLOUDY    41  32  70 NE15      30.43R
AIKEN          CLOUDY    36  27  69 NE12      30.46R WCI  27
MANNING        CLOUDY    37  23  56 N9G21     30.44R WCI  31
COLUMBIA       PTSUNNY   38  25  59 NE10      30.45R WCI  31
SUMTER         CLOUDY    37  27  68 NE18      30.43R WCI  27
FLORENCE       CLOUDY    35  24  64 NE15      30.46R WCI  25
MYRTLE BEACH   CLOUDY    36  25  64 NE17G23   30.44R WCI  25
N MYRTLE BEACH CLOUDY    35  24  64 N10G23    30.43R WCI  27

$$

GAZ063-065-086>088-099>101-113>116-118-119-134>141-150-061500-
...SOUTHEAST GEORGIA...

CITY           SKY/WX    TMP DP  RH WIND       PRES   REMARKS
SAVANNAH ARPT  CLOUDY    42  35  76 N12       30.39R
HUNTER AAF     CLOUDY    42  38  84 NE10G17   30.36R
FORT STEWART   CLOUDY    43  37  81 NE9       30.36R
STATESBORO     CLOUDY    41  34  77 NE8       30.41R
SYLVANIA       CLOUDY    40  34  80 NE12G17   30.41R WCI  33
CLAXTON        CLOUDY    43  36  75 NE10      30.39R

...CSRA...CENTRAL AND FAR SOUTHEAST GEORGIA...

CITY           SKY/WX    TMP DP  RH WIND       PRES   REMARKS
THOMSON        CLOUDY    41  33  74 NE10      30.47R
AUGUSTA-BUSH   CLOUDY    40  30  67 NE12      30.43R WCI  33
AUGUSTA-DANIEL CLOUDY    40  28  62 NE14G20   30.43R WCI  32
SWAINSBORO     CLOUDY    43  28  56 NE7       30.40R
VIDALIA        CLOUDY    41  37  87 NE13G20   30.38R
EASTMAN        CLOUDY    43  40  89 NE8       30.41R
HAZLEHURST     CLOUDY    45  42  89 NE8       30.37R
ALMA           CLOUDY    45  40  82 NE9       30.35R
WAYCROSS       CLOUDY    48  47  97 E9        30.35R FOG
JESUP          CLOUDY    46  43  87 E8        30.37R
BAXLEY         CLOUDY    45  41  87 NE10      30.36R
BRUNSWICK      CLOUDY    46  43  87 NE9G17    30.36R
SAINT SIMONS   CLOUDY    46  42  86 NE16      30.34R

$$

SCZ027-028-034-036>038-045-046-048>050-GAZ119-141-061500-
...LAKE AND SUPPLEMENTAL COASTAL OBSERVATIONS...

STATION/POSITION TIME  TEMP    WIND        PRES    WAVE   SWELL
                       AIR SEA DIR/SP/G            HT/PER HT/PER/DIR
                 (UTC) (F)     (DEG/KT/KT) (MB)    (FT/S) (FT/S/D)
UPR LAKE MARION  NOT AVBL
WINYAH BAY       1300   37      30/ 10     1028.0
LAKE MURRAY      1400   35      30/  6/ 10 1030.5R
ACE BASIN NERRS  NOT AVBL
FORT PULASKI     1400   43 53   30/ 13/ 18 1029.3R
SAPELO ISLAND    1400   45      40/ 12     1027.0S

$$

ANZ835-935-AMZ111-154-330-350-352-354-370-450-454-472-061500-
...C-MAN AND BUOY OBSERVATIONS...

STATION/POSITION TIME  TEMP    WIND        PRES    WAVE   SWELL
                       AIR SEA DIR/SP/G            HT/PER HT/PER/DIR
                 (UTC) (F)     (DEG/KT/KT) (MB)    (FT/S) (FT/S/D)
BUOY 41004       1350   46 67   30/ 23/ 29 1026.6R  11/ 8   3/16
BUOY 41008       1350   47 55   40/ 21/ 27 1026.2R   8/ 6
FOLLY BEACH CMAN 1400   39      20/ 14/ 16 1029.8R
CAPERS NEARSHORE 1300   40      50/ 21/ 25   N/A
FRIPP NEARSHORE  1300   43      30/ 19/ 21 1026.6R


STATION/POSITION TIME  TEMP    WIND        PRES    WAVE   SWELL
                       AIR SEA DIR/SP/G            HT/PER HT/PER/DIR
                 (UTC) (F)     (DEG/KT/KT) (MB)    (FT/S) (FT/S/D)
5E ST. MARYS GA  1321      54                N/A     7/ 6   2/110/11
FRYING PAN BUOY  1350   41 62   40/ 25/ 31 1028.5R   9/ 9   3/ 90/ 9
BUOY 41025       NOT AVBL
CAPE LOOKOUT NC  1400           10/ 21/ 26 1030.6R
BUOY 41002       1350   64 72   20/ 23/ 29 1021.9R   7/ 6   2/ 20/ 9
BUOY 41010       1320   75 75  300/  6/  8 1021.5R
ST AUGUSTINE FL  1400   51     360/ 22/ 25 1025.8R


$$


USA.gov is the U.S. government's official web portal to all federal, state and local government web resources and services.